Retour au catalogue

TIANMU-1 13

ActifMétéoSSO
NORAD 58647·PAYLOAD·🇨🇳 China

Lancé Dec 25, 2023 depuis Jiuquan Satellite Launch Center

Loading…

Prochains Passages (prochaines 24 heures)

TLE

FraisSource: Space-Track

Époque: Sep 14, 2026, 11:54 UTC

1 58647U 23205C   26257.49589681  .00004142  00000-0  15692-3 0  9991
2 58647  97.3446 277.7068 0006812  29.9760 330.1869 15.27432590151131

Suivez TIANMU-1 13 en temps réel avec AllMySat

Download on the App Store